Theta_e
303 297 294 297 299 299 297 296 294 297 300 297 297 298 300 304 304 304 305 306 307 308 312 313 312 314 320 325 326 326 325 326 320 312 310 309 308 305 305 307 307 305 306 305
297 293 299 301 299 298 296 294 294 297 300 297 297 297 301 303 303 304 305 306 307 309 310 312 311 311 313 319 323 323 323 323 322 317 315 312 309 305 303 303 304 304 303 302
294 297 300 299 296 294 294 293 293 294 297 298 296 295 298 302 304 305 306 307 308 308 309 309 307 309 310 313 318 320 321 321 320 319 315 302 299 298 297 297 299 303 302 300
296 300 297 296 294 296 291 297 296 294 292 289 296 288 296 299 301 304 306 308 309 309 309 309 309 307 308 311 315 317 318 318 317 316 314 307 309 305 302 299 298 298 299 297
294 295 295 293 295 297 294 297 295 295 293 293 293 289 294 300 298 301 306 308 310 309 308 307 307 307 308 311 313 313 314 315 314 314 311 308 309 312 306 300 295 293 293 294
297 298 298 297 297 298 298 296 295 295 293 286 292 291 292 296 299 302 306 307 306 305 305 304 304 305 306 309 310 310 310 311 311 310 308 309 310 306 302 296 294 291 291 289
295 294 297 298 294 296 296 293 286 286 286 285 294 292 295 300 303 304 306 305 304 305 304 303 302 302 304 305 307 307 309 308 308 305 307 307 308 304 301 297 295 291 289 288
289 287 294 297 296 293 293 293 288 284 284 287 290 287 294 303 305 306 306 307 305 304 304 303 303 303 303 304 305 306 306 307 307 305 305 304 302 300 299 299 299 296 292 290
291 291 298 298 299 298 293 290 297 290 288 286 290 295 301 302 302 304 304 303 303 305 302 301 301 302 303 303 303 305 305 306 305 306 307 305 303 298 296 296 296 295 293 289
295 290 296 296 297 299 296 299 289 291 284 283 288 291 293 298 299 303 303 302 304 303 300 300 301 301 302 303 303 304 305 304 304 304 303 301 300 299 297 295 291 290 288 285
296 294 290 293 292 292 292 292 293 294 291 286 285 290 301 300 303 303 304 304 304 301 301 301 301 301 302 302 302 303 303 303 303 303 302 299 298 296 294 291 290 288 285 284
296 293 289 291 294 296 296 293 294 289 287 290 289 290 300 300 302 303 302 301 302 302 302 301 300 300 300 301 302 302 302 301 302 302 300 298 296 294 291 289 288 285 283 282
294 286 284 285 289 293 290 294 294 295 291 289 286 290 297 297 298 298 300 300 299 299 299 298 298 298 299 300 301 301 300 300 301 300 298 296 294 291 289 288 286 284 283 281
295 286 286 286 287 291 288 291 293 292 287 288 289 293 298 298 296 298 299 299 299 298 297 298 298 298 298 299 299 299 300 300 299 298 296 293 292 290 289 287 285 283 282 280
292 285 287 288 289 288 287 287 291 289 290 285 291 293 297 300 300 299 301 301 298 297 297 298 299 300 299 298 298 299 299 298 298 295 293 292 292 290 289 286 284 282 281 280
293 285 287 285 289 289 286 288 289 290 292 291 293 292 300 301 302 303 303 301 297 298 299 299 300 299 299 298 297 298 298 297 296 294 292 292 290 288 286 284 282 281 280 279
287 285 285 283 289 287 283 287 289 291 294 294 289 295 300 300 300 302 302 303 303 302 302 302 301 299 299 298 297 296 296 296 294 292 291 290 288 285 284 283 281 280 279 278
286 285 285 282 285 278 289 295 295 293 294 296 296 298 300 300 301 301 304 303 303 303 304 304 304 305 304 301 298 296 294 294 291 290 289 288 286 284 283 281 280 280 279 278
291 287 283 280 281 285 288 290 291 290 290 288 291 294 296 298 300 301 304 304 303 304 301 300 300 300 300 300 297 292 291 291 289 289 288 287 285 283 282 280 280 280 279 278
287 288 284 282 277 276 287 289 291 295 285 289 289 289 289 292 290 296 296 298 298 297 296 295 294 293 292 294 292 289 288 288 288 288 287 286 285 283 281 281 280 280 279 278
281 282 279 280 279 283 289 288 290 282 284 290 290 290 290 288 291 293 295 295 295 293 292 292 291 289 289 288 288 287 287 287 288 288 286 284 284 282 282 282 281 280 279 279
281 280 279 281 278 277 290 289 286 287 290 289 290 292 291 291 290 291 291 292 292 291 291 289 286 286 286 286 286 286 285 287 287 286 284 283 283 283 283 281 281 280 279 279
278 284 284 285 285 290 290 288 291 293 291 291 291 292 290 289 288 289 289 289 290 289 287 287 286 285 284 285 286 285 285 285 284 283 281 282 282 282 282 281 280 280 280 279
285 287 283 283 286 287 287 289 291 292 291 292 292 291 291 289 289 286 286 286 286 286 285 284 284 283 283 283 283 285 284 284 283 282 281 281 281 281 281 282 281 281 280 279
284 284 282 282 284 285 286 288 289 290 290 289 289 287 287 286 285 285 285 285 286 285 283 281 282 282 282 281 282 282 283 282 282 282 281 281 281 281 280 280 281 280 281 282
284 281 279 279 284 284 285 288 289 288 288 289 288 287 286 286 286 285 284 285 284 283 282 281 280 279 281 280 281 282 283 283 282 280 280 281 281 281 281 280 280 283 283 283
Wind_Speed
9 10 13 15 19 17 7 7 10 9 6 5 13 17 19 16 16 19 20 19 19 19 15 13 13 14 15 16 18 19 17 16 11 6 4 3 3 3 2 2 4 5 7 7
5 15 14 15 8 11 11 14 16 14 6 4 13 18 21 20 19 21 21 20 20 18 15 12 13 14 17 18 18 19 18 17 13 9 6 3 4 3 2 3 4 6 7 8
18 4 11 12 10 10 15 17 14 15 7 14 11 17 21 15 14 18 22 22 20 18 14 10 13 15 15 17 17 16 17 17 14 13 9 6 5 4 3 2 3 4 7 8
13 16 5 11 17 14 17 14 12 11 6 9 1 11 12 10 13 14 15 14 14 12 9 10 12 14 15 15 13 16 15 14 12 13 11 12 8 6 5 5 4 5 6 7
5 10 14 15 11 9 3 1 6 8 8 11 15 10 6 14 14 15 16 13 9 5 3 5 6 8 10 10 11 12 14 13 11 11 11 9 10 7 6 6 7 5 5 5
6 2 7 6 3 11 11 7 4 3 5 10 15 16 13 14 19 15 13 2 6 7 4 3 2 4 7 7 9 10 13 14 12 11 13 12 12 9 9 7 7 5 4 4
12 10 5 5 7 5 12 7 4 6 7 11 2 11 17 3 5 10 11 5 9 6 6 6 6 6 6 9 9 10 13 14 13 13 12 12 11 12 11 10 8 9 6 5
16 13 18 15 17 10 16 13 8 8 8 12 4 11 7 9 8 9 11 7 6 6 6 5 5 5 8 10 11 12 13 13 13 13 13 10 8 5 5 7 7 8 7 6
15 14 8 13 10 16 8 14 11 13 2 5 11 18 17 12 11 12 11 9 11 8 4 5 7 8 8 9 10 11 12 12 12 13 12 12 11 9 8 9 7 7 6 7
8 14 6 7 4 11 9 6 8 6 6 11 15 16 13 5 14 15 14 13 10 6 7 8 8 8 7 7 9 10 11 13 12 12 10 10 11 10 8 8 7 7 8 9
11 9 6 5 13 16 10 12 8 6 10 6 15 13 4 6 6 13 10 8 9 10 9 9 8 7 7 7 8 9 10 11 11 11 10 10 9 9 8 7 7 8 8 9
5 4 14 16 4 7 13 17 20 9 8 8 7 22 6 7 5 4 6 7 8 8 8 7 6 7 8 9 10 10 10 10 10 10 10 10 9 9 9 8 9 9 9 10
3 4 4 2 4 6 7 13 12 19 2 8 9 22 4 6 1 1 3 1 3 5 6 6 5 6 8 9 10 11 10 11 10 9 9 8 8 9 8 8 8 9 10 10
7 3 3 2 5 3 6 13 17 13 9 12 19 27 13 5 4 5 5 2 2 4 5 5 7 9 9 8 10 10 10 11 10 10 10 11 10 10 10 10 10 10 10 10
6 5 4 3 8 0 2 7 9 14 16 8 18 22 16 14 7 5 5 4 4 7 9 10 10 9 9 10 11 10 11 10 10 11 11 10 10 9 9 9 10 11 11 10
7 3 5 6 10 12 10 15 16 18 20 22 24 32 14 19 17 15 13 10 10 12 14 13 11 9 10 12 12 10 12 13 12 13 12 10 10 9 10 10 10 10 10 10
4 2 3 4 3 6 9 16 17 14 17 20 20 27 16 16 16 11 11 12 12 13 13 14 12 11 13 12 11 13 12 11 13 12 11 10 11 11 11 10 11 11 12 11
5 3 1 3 1 8 5 1 13 16 17 16 19 23 16 17 12 6 13 13 15 13 11 11 9 10 6 6 7 7 7 11 12 12 11 11 12 11 11 11 11 11 11 12
12 5 3 5 7 12 16 7 6 7 2 12 8 16 18 18 9 14 12 9 13 12 9 7 7 8 9 6 4 6 6 8 10 11 11 12 12 12 12 11 11 9 9 9
6 9 5 6 6 7 2 2 1 4 6 6 11 14 13 12 5 7 13 11 9 7 6 7 7 6 6 4 4 6 6 7 10 10 10 10 10 11 12 12 12 11 10 10
5 5 15 12 9 7 2 3 1 6 1 7 7 7 9 6 4 12 10 9 5 6 7 7 6 5 5 2 2 4 6 8 6 6 7 9 10 11 11 11 10 10 9 9
8 8 7 7 7 12 4 6 2 2 4 7 10 10 7 7 6 7 8 6 9 9 7 4 4 4 3 1 4 4 4 4 5 7 8 8 8 8 8 11 10 10 10 10
7 8 5 7 4 4 2 4 5 3 9 9 7 9 9 10 7 5 5 6 6 7 6 5 7 3 1 1 1 3 4 6 7 7 7 7 8 9 9 11 10 9 9 9
7 3 4 2 11 0 5 6 4 6 9 10 10 10 12 15 8 7 7 6 5 5 5 3 6 7 3 3 2 2 4 5 7 7 8 7 7 7 8 7 8 8 9 8
7 6 5 8 14 9 13 10 9 6 6 9 9 8 10 7 9 8 6 5 5 6 2 0 4 5 5 2 3 6 5 7 6 6 6 7 6 7 7 6 6 7 7 9
10 17 10 11 14 9 12 11 8 7 10 11 6 6 8 8 12 6 8 5 4 2 0 2 4 5 5 3 3 3 6 6 7 7 6 6 6 6 6 6 5 13 11 15
Wind_Direction
206 218 217 218 225 242 292 277 275 270 131 261 255 269 274 272 267 265 265 262 261 255 235 215 201 207 205 203 203 202 195 191 166 156 150 153 167 150 125 141 151 131 133 143
184 230 236 238 291 249 241 259 260 269 303 239 274 271 274 268 256 256 259 257 257 258 250 210 182 200 205 207 205 202 199 195 185 178 168 148 143 144 125 132 168 160 153 148
225 212 228 233 228 233 240 250 260 267 307 254 280 270 251 255 254 253 255 257 259 260 262 181 198 212 212 213 206 205 203 197 192 188 154 108 86 94 134 173 152 166 164 164
246 245 184 210 236 224 257 252 249 262 264 273 279 288 284 267 257 243 244 244 255 248 239 242 213 214 218 211 205 202 205 200 194 191 183 190 193 180 186 160 154 156 176 169
196 189 205 220 216 195 262 62 213 228 242 289 253 264 270 242 240 251 254 251 242 227 247 216 212 221 221 205 200 200 204 196 190 195 194 198 213 206 159 145 134 156 155 167
274 357 204 225 93 201 133 116 118 208 257 257 257 245 273 248 233 245 251 157 163 166 167 142 108 187 191 183 196 198 203 194 190 194 204 206 201 176 167 149 155 160 154 155
206 209 169 166 126 141 199 183 226 228 198 252 348 257 249 278 317 273 267 161 183 170 167 156 170 167 178 182 186 200 202 201 186 202 202 203 202 186 183 166 170 161 169 181
210 213 186 184 209 181 198 199 212 234 243 269 104 237 257 236 277 235 246 225 177 195 188 188 161 175 183 185 192 197 198 202 191 197 199 195 184 180 176 176 178 184 186 176
220 226 173 181 193 182 177 218 253 275 25 276 254 258 263 208 230 233 240 228 225 227 191 183 172 177 181 186 193 198 198 200 196 201 197 195 187 182 178 177 174 170 158 155
262 262 177 154 195 241 245 193 195 219 229 245 253 255 258 209 227 243 228 223 229 182 182 187 170 173 175 188 194 197 196 201 198 199 197 195 190 191 182 174 167 164 157 147
234 235 127 157 207 194 186 213 218 241 225 251 271 257 315 357 312 238 236 213 191 184 183 179 157 167 181 184 195 198 199 201 201 200 197 196 189 183 171 164 161 170 154 156
223 268 238 216 77 349 249 216 210 211 204 224 272 270 89 38 348 282 181 164 167 170 159 153 158 171 183 191 192 195 201 206 208 200 197 196 182 177 173 177 165 159 159 156
171 191 154 138 348 318 248 217 241 235 30 231 224 258 79 73 93 1 302 145 191 158 166 171 174 202 208 206 203 196 200 200 198 195 199 187 181 180 180 172 162 161 159 156
10 167 266 246 68 33 211 232 229 228 225 233 229 260 252 34 349 285 310 307 203 206 218 218 211 219 217 212 213 208 206 207 201 197 193 192 187 183 181 170 164 162 161 158
169 225 176 264 302 24 295 317 275 247 245 244 263 261 272 274 288 266 292 260 241 230 230 239 238 223 219 217 216 206 208 198 195 197 200 197 185 179 172 167 168 161 164 164
186 237 202 268 234 205 236 229 226 248 248 242 253 259 278 286 295 272 254 260 227 233 236 240 236 219 222 220 215 200 206 198 191 195 202 191 174 170 166 165 167 162 158 156
152 215 197 255 114 186 246 235 227 232 239 232 247 252 257 272 262 253 266 271 265 253 249 246 242 229 225 221 209 206 199 189 190 193 191 183 173 167 167 163 162 167 167 159
172 139 57 293 97 243 258 239 223 227 246 249 255 262 263 269 277 302 274 276 269 277 280 285 286 290 279 220 217 217 190 190 188 190 182 174 170 170 165 164 171 169 169 173
213 171 214 243 243 296 293 218 188 177 183 42 341 333 341 343 329 278 281 274 271 293 327 329 317 308 303 290 206 180 181 189 187 190 183 179 170 167 162 171 173 167 165 174
197 216 215 197 240 260 15 58 336 133 256 17 17 354 352 355 306 319 3 341 321 326 328 324 314 307 294 298 143 158 177 185 198 195 184 174 164 164 166 166 172 172 174 177
157 190 215 227 239 273 81 103 317 201 345 337 333 320 328 321 266 295 319 310 294 305 315 324 324 318 340 24 146 175 176 198 187 171 157 160 166 164 168 162 164 165 170 173
170 181 198 210 216 243 121 110 233 179 229 256 288 289 290 261 277 297 302 332 326 314 308 314 307 319 332 175 167 175 197 175 158 146 153 155 160 162 161 158 162 168 174 175
232 226 219 207 209 124 163 162 247 230 261 286 283 271 256 277 254 262 283 338 316 310 307 313 302 271 282 280 256 166 165 144 136 138 142 154 158 161 162 164 162 166 178 180
217 211 234 80 255 65 9 311 257 215 233 263 262 263 276 269 272 257 272 272 267 259 276 324 312 287 260 154 100 20 103 116 137 146 150 147 161 162 159 166 168 173 182 187
236 154 212 252 271 299 284 274 293 295 249 268 265 241 236 242 261 248 260 281 279 277 307 223 287 282 268 182 192 144 140 143 146 145 143 153 156 168 168 176 178 186 189 194
229 244 242 258 275 273 272 280 286 279 285 268 262 271 237 227 255 246 263 242 235 239 45 304 292 279 256 193 172 136 143 154 152 150 156 160 159 168 170 176 174 206 210 207